Location: Albuquerque Trailhead
(34.7934°N, 106.3736°W)
Time: 02:02:58
(UTC+00:00)

BREEZE-M DEB (TANK) - Pass Details

Date: 20 June 2021
Orbit: 373 x 20280 km, 49.3° (Epoch: 27 July)

Event Time Altitude Azimuth Distance (km) Brightness Sun altitude
Rises 10:32:14 0° 308° (NW) 7,088 8.3 -14.1°
Reaches altitude 10° 10:39:12 10° 300° (WNW) 4,064 7.0 -13.1°
Maximum altitude 10:45:50 27° 245° (WSW) 1,410 4.3 -12.0°
Drops below altitude 10° 10:48:43 10° 183° (S) 1,676 4.9 -11.6°
Sets 10:50:19 0° 167° (SSE) 2,320 5.8 -11.3°
